星链-32740 (STARLINK-32740)

导读 | 豆包AI

STARLINK-32740是美国SpaceX星链互联网卫星星座的一员,于2025年1月21日发射入轨。星链计划旨在通过大规模低轨卫星群,为全球提供高速低延迟宽带互联网服务,尤其覆盖偏远及网络基础设施薄弱区域。该卫星延续星链标准化设计,承担星座组网补网、容量扩容任务,进一步完善全球卫星互联网覆盖能力。

基本信息
目录编号:
62754
目录名称:
STARLINK-32740
国际标识:
2025-014V
轨道中心:
EARTH
卫星名称:
星链-32740
卫星全名:
星链-32740 (STARLINK-32740)
卫星状态:
在轨 (已飞行418 天)
发射日期:
2025-01-21 UTC
国别 :
美国 (US)
星等 :
--
轨道信息
数据来源 国际轨道数据
星历时间: 2026-03-14T19:22:13+0800
15小时前
查看轨道信息
半长轴: 6861.224km
偏心率: 0.0001157
轨道倾角: 43.002°
近地点辐角 267.345°
升交点赤经 126.977°
平近点角 92.727°
近地点: 482.293km
远地点: 483.881km
周期: 94.268分钟
每日圈数: 15.275674
详细信息
固有亮度:
5
最大亮度:
2.5
卫星平台:
Starlink V1.0
覆盖范围:
全球
运营商:
太空探索技术公司
运营商所在国:
美国
制造商(研发单位):
太空探索技术公司
制造商所在国:
美国
使用方式:
暂无
卫星简介
Starlink 计划是 SpaceX 推出的全球卫星互联网项目,通过发射低轨道卫星,为全球尤其是偏远地区提供高速、低延迟的互联网服务。自 2019 年起,Starlink 已部署数千颗卫星,旨在缩小全球数字鸿沟,推动互联网普及。该项目还为军事、航空等行业提供通信支持,带来广泛经济效益。
2D轨道图
3D轨道图
轨道高度分析图
轨道倾角分析图
轨道综合分析图
查看轨道综合分析图